Climatologie pour Saint-Brevin les Pins
Jour • Résumé pour janvier 26, 2017 Système :  Métrique    Anglais   Mixte
« - 1 jour
+ 1 jour »
Jour Semaine Mois Année Personnalisé
  Maximum : Minimum : Moyenne :
Température sous abri : 7.6 °C -4.0 °C 1.1 °C
Point de rosée : 1.7 °C -5.3 °C -2.1 °C
Humidité : 91 % 58 % 80 %
Vitesse du vent : 24.1 km/h 0.0 km/h 7.4 km/h
Rafale : 29.0 km/h - -
Direction :- - ESE
Pression : 1022.2 hPa 1008.7 hPa -
Précipitations : 0.0 mm    
Historical Graphs
 
 
Tableau de données pour janvier 26, 2017
Heure Tempé Pt rosée Pression Vent Vitesse Rafale Humidité Taux pluie (/hr) Soleil
00:00 -0.7 °C -3.4 °C 1022.2 hPa SE 6.4 km/h 17.7 km/h 82 % 0.0 mm 0 W/m2
00:05 -0.7 °C -3.4 °C 1022.2 hPa SE 4.8 km/h 17.7 km/h 82 % 0.0 mm 0 W/m2
00:10 -0.7 °C -3.4 °C 1022.2 hPa SE 11.3 km/h 12.9 km/h 82 % 0.0 mm 0 W/m2
00:15 -0.7 °C -3.4 °C 1022.2 hPa SE 3.2 km/h 12.9 km/h 82 % 0.0 mm 0 W/m2
00:20 -0.7 °C -3.4 °C 1022.2 hPa SE 3.2 km/h 11.3 km/h 82 % 0.0 mm 0 W/m2
00:25 -0.7 °C -3.2 °C 1022.2 hPa East 4.8 km/h 14.5 km/h 83 % 0.0 mm 0 W/m2
00:30 -0.7 °C -3.2 °C 1022.2 hPa SSE 3.2 km/h 14.5 km/h 83 % 0.0 mm 0 W/m2
00:35 -0.7 °C -3.2 °C 1022.2 hPa ESE 6.4 km/h 14.5 km/h 83 % 0.0 mm 0 W/m2
00:40 -0.7 °C -3.2 °C 1022.2 hPa SE 8.0 km/h 14.5 km/h 83 % 0.0 mm 0 W/m2
00:45 -0.7 °C -3.2 °C 1021.9 hPa SE 8.0 km/h 12.9 km/h 83 % 0.0 mm 0 W/m2
00:50 -0.7 °C -3.2 °C 1021.9 hPa SE 1.6 km/h 11.3 km/h 83 % 0.0 mm 0 W/m2
00:55 -0.7 °C -3.2 °C 1021.9 hPa SSE 1.6 km/h 16.1 km/h 83 % 0.0 mm 0 W/m2
01:00 -0.7 °C -3.3 °C 1021.9 hPa SSE 9.7 km/h 16.1 km/h 83 % 0.0 mm 0 W/m2
01:05 -0.7 °C -3.3 °C 1021.9 hPa SE 16.1 km/h 20.9 km/h 83 % 0.0 mm 0 W/m2
01:10 -0.7 °C -3.3 °C 1021.9 hPa ESE 11.3 km/h 20.9 km/h 83 % 0.0 mm 0 W/m2
01:15 -0.7 °C -3.3 °C 1021.6 hPa ESE 3.2 km/h 16.1 km/h 83 % 0.0 mm 0 W/m2
01:20 -0.8 °C -3.3 °C 1021.6 hPa ESE 8.0 km/h 17.7 km/h 83 % 0.0 mm 0 W/m2
01:25 -0.8 °C -3.3 °C 1021.6 hPa SE 6.4 km/h 17.7 km/h 83 % 0.0 mm 0 W/m2
01:30 -0.8 °C -3.4 °C 1021.6 hPa ESE 4.8 km/h 16.1 km/h 83 % 0.0 mm 0 W/m2
01:35 -0.8 °C -3.4 °C 1021.6 hPa SE 6.4 km/h 16.1 km/h 83 % 0.0 mm 0 W/m2
01:40 -0.8 °C -3.4 °C 1021.6 hPa ESE 14.5 km/h 14.5 km/h 83 % 0.0 mm 0 W/m2
01:45 -0.9 °C -3.4 °C 1021.2 hPa SSE 3.2 km/h 14.5 km/h 83 % 0.0 mm 0 W/m2
01:50 -0.9 °C -3.3 °C 1021.2 hPa ESE 11.3 km/h 14.5 km/h 84 % 0.0 mm 0 W/m2
01:55 -0.9 °C -3.3 °C 1021.2 hPa SE 3.2 km/h 19.3 km/h 84 % 0.0 mm 0 W/m2
02:00 -0.9 °C -3.3 °C 1021.2 hPa ESE 8.0 km/h 19.3 km/h 84 % 0.0 mm 0 W/m2
02:05 -0.9 °C -3.3 °C 1021.2 hPa SE 8.0 km/h 17.7 km/h 84 % 0.0 mm 0 W/m2
02:10 -1.0 °C -3.4 °C 1021.2 hPa SE 4.8 km/h 17.7 km/h 84 % 0.0 mm 0 W/m2
02:15 -1.0 °C -3.4 °C 1021.2 hPa ESE 4.8 km/h 14.5 km/h 84 % 0.0 mm 0 W/m2
02:20 -1.1 °C -3.4 °C 1020.9 hPa ESE 1.6 km/h 14.5 km/h 84 % 0.0 mm 0 W/m2
02:25 -1.1 °C -3.5 °C 1020.9 hPa East 4.8 km/h 12.9 km/h 84 % 0.0 mm 0 W/m2
02:30 -1.2 °C -3.5 °C 1020.9 hPa ESE 4.8 km/h 11.3 km/h 84 % 0.0 mm 0 W/m2
02:35 -1.2 °C -3.6 °C 1020.9 hPa ESE 4.8 km/h 11.3 km/h 84 % 0.0 mm 0 W/m2
02:40 -1.3 °C -3.6 °C 1020.9 hPa ESE 3.2 km/h 12.9 km/h 84 % 0.0 mm 0 W/m2
02:45 -1.3 °C -3.5 °C 1020.9 hPa ESE 11.3 km/h 12.9 km/h 85 % 0.0 mm 0 W/m2
02:50 -1.4 °C -3.6 °C 1020.9 hPa ESE 8.0 km/h 16.1 km/h 85 % 0.0 mm 0 W/m2
02:55 -1.4 °C -3.6 °C 1020.9 hPa East 4.8 km/h 17.7 km/h 85 % 0.0 mm 0 W/m2
03:00 -1.6 °C -3.7 °C 1020.5 hPa East 3.2 km/h 17.7 km/h 85 % 0.0 mm 0 W/m2
03:05 -1.7 °C -3.8 °C 1020.5 hPa East 9.7 km/h 14.5 km/h 86 % 0.0 mm 0 W/m2
03:10 -1.8 °C -3.9 °C 1020.5 hPa ESE 12.9 km/h 14.5 km/h 86 % 0.0 mm 0 W/m2
03:15 -1.9 °C -4.0 °C 1020.5 hPa ESE 4.8 km/h 14.5 km/h 86 % 0.0 mm 0 W/m2
03:20 -2.1 °C -4.1 °C 1020.5 hPa East 9.7 km/h 14.5 km/h 86 % 0.0 mm 0 W/m2
03:25 -2.2 °C -4.2 °C 1020.5 hPa ESE 6.4 km/h 14.5 km/h 86 % 0.0 mm 0 W/m2
03:30 -2.3 °C -4.3 °C 1020.5 hPa East 11.3 km/h 16.1 km/h 86 % 0.0 mm 0 W/m2
03:35 -2.3 °C -4.4 °C 1020.5 hPa ESE 8.0 km/h 16.1 km/h 86 % 0.0 mm 0 W/m2
03:40 -2.4 °C -4.5 °C 1020.2 hPa ESE 6.4 km/h 14.5 km/h 86 % 0.0 mm 0 W/m2
03:45 -2.5 °C -4.4 °C 1020.2 hPa ESE 6.4 km/h 14.5 km/h 87 % 0.0 mm 0 W/m2
03:50 -2.6 °C -4.4 °C 1020.2 hPa ESE 6.4 km/h 14.5 km/h 87 % 0.0 mm 0 W/m2
03:55 -2.7 °C -4.5 °C 1019.9 hPa East 4.8 km/h 12.9 km/h 87 % 0.0 mm 0 W/m2
04:00 -2.7 °C -4.6 °C 1019.9 hPa ESE 11.3 km/h 14.5 km/h 87 % 0.0 mm 0 W/m2
04:05 -2.8 °C -4.6 °C 1019.9 hPa ESE 3.2 km/h 14.5 km/h 87 % 0.0 mm 0 W/m2
04:10 -2.8 °C -4.7 °C 1019.5 hPa ESE 4.8 km/h 12.9 km/h 87 % 0.0 mm 0 W/m2
04:15 -2.9 °C -4.8 °C 1019.5 hPa East 4.8 km/h 11.3 km/h 87 % 0.0 mm 0 W/m2
04:20 -3.0 °C -4.7 °C 1019.5 hPa ESE 11.3 km/h 11.3 km/h 88 % 0.0 mm 0 W/m2
04:25 -3.0 °C -4.7 °C 1019.5 hPa ESE 3.2 km/h 11.3 km/h 88 % 0.0 mm 0 W/m2
04:30 -3.1 °C -4.8 °C 1019.2 hPa East 8.0 km/h 11.3 km/h 88 % 0.0 mm 0 W/m2
04:35 -3.2 °C -4.9 °C 1019.2 hPa SE 3.2 km/h 11.3 km/h 88 % 0.0 mm 0 W/m2
04:40 -3.2 °C -4.9 °C 1019.2 hPa East 4.8 km/h 11.3 km/h 88 % 0.0 mm 0 W/m2
04:45 -3.3 °C -4.8 °C 1019.2 hPa ESE 8.0 km/h 11.3 km/h 89 % 0.0 mm 0 W/m2
04:50 -3.3 °C -4.8 °C 1019.2 hPa ESE 3.2 km/h 11.3 km/h 89 % 0.0 mm 0 W/m2
04:55 -3.3 °C -4.9 °C 1019.2 hPa ESE 3.2 km/h 12.9 km/h 89 % 0.0 mm 0 W/m2
05:00 -3.3 °C -4.9 °C 1019.2 hPa ESE 4.8 km/h 12.9 km/h 89 % 0.0 mm 0 W/m2
05:05 -3.3 °C -4.9 °C 1019.2 hPa East 9.7 km/h 14.5 km/h 89 % 0.0 mm 0 W/m2
05:10 -3.3 °C -4.8 °C 1018.8 hPa ESE 6.4 km/h 16.1 km/h 89 % 0.0 mm 0 W/m2
05:15 -3.2 °C -4.6 °C 1019.2 hPa ESE 6.4 km/h 16.1 km/h 90 % 0.0 mm 0 W/m2
05:20 -3.2 °C -4.8 °C 1019.2 hPa ESE 1.6 km/h 16.1 km/h 89 % 0.0 mm 0 W/m2
05:25 -3.2 °C -4.6 °C 1019.2 hPa SE 3.2 km/h 16.1 km/h 90 % 0.0 mm 0 W/m2
05:30 -3.2 °C -4.6 °C 1018.8 hPa ESE 6.4 km/h 16.1 km/h 90 % 0.0 mm 0 W/m2
05:35 -3.2 °C -4.6 °C 1018.8 hPa ESE 4.8 km/h 17.7 km/h 90 % 0.0 mm 0 W/m2
05:40 -3.3 °C -4.7 °C 1018.8 hPa ESE 11.3 km/h 17.7 km/h 90 % 0.0 mm 0 W/m2
05:45 -3.2 °C -4.6 °C 1018.8 hPa ESE 11.3 km/h 17.7 km/h 90 % 0.0 mm 0 W/m2
05:50 -3.2 °C -4.6 °C 1018.8 hPa ESE 11.3 km/h 17.7 km/h 90 % 0.0 mm 0 W/m2
05:55 -3.2 °C -4.6 °C 1018.8 hPa SE 11.3 km/h 17.7 km/h 90 % 0.0 mm 0 W/m2
06:00 -3.3 °C -4.7 °C 1018.8 hPa ESE 6.4 km/h 14.5 km/h 90 % 0.0 mm 0 W/m2
06:05 -3.3 °C -4.7 °C 1018.5 hPa East 9.7 km/h 14.5 km/h 90 % 0.0 mm 0 W/m2
06:10 -3.3 °C -4.7 °C 1018.5 hPa ESE 8.0 km/h 16.1 km/h 90 % 0.0 mm 0 W/m2
06:15 -3.4 °C -4.8 °C 1018.5 hPa East 9.7 km/h 16.1 km/h 90 % 0.0 mm 0 W/m2
06:20 -3.4 °C -4.8 °C 1018.5 hPa East 8.0 km/h 12.9 km/h 90 % 0.0 mm 0 W/m2
06:25 -3.5 °C -4.9 °C 1018.5 hPa SE 8.0 km/h 12.9 km/h 90 % 0.0 mm 0 W/m2
06:30 -3.5 °C -4.8 °C 1018.5 hPa ESE 6.4 km/h 12.9 km/h 91 % 0.0 mm 0 W/m2
06:35 -3.5 °C -4.8 °C 1018.5 hPa East 4.8 km/h 14.5 km/h 91 % 0.0 mm 0 W/m2
06:40 -3.5 °C -4.8 °C 1018.5 hPa ESE 3.2 km/h 14.5 km/h 91 % 0.0 mm 0 W/m2
06:45 -3.6 °C -4.8 °C 1018.5 hPa ESE 12.9 km/h 14.5 km/h 91 % 0.0 mm 0 W/m2
06:50 -3.6 °C -4.8 °C 1018.5 hPa ESE 1.6 km/h 12.9 km/h 91 % 0.0 mm 0 W/m2
06:55 -3.6 °C -4.9 °C 1018.5 hPa ESE 9.7 km/h 14.5 km/h 91 % 0.0 mm 0 W/m2
07:00 -3.7 °C -4.9 °C 1018.2 hPa ESE 8.0 km/h 14.5 km/h 91 % 0.0 mm 0 W/m2
07:05 -3.7 °C -4.9 °C 1018.2 hPa ENE 6.4 km/h 11.3 km/h 91 % 0.0 mm 0 W/m2
07:10 -3.8 °C -5.0 °C 1018.2 hPa East 6.4 km/h 14.5 km/h 91 % 0.0 mm 0 W/m2
07:15 -3.8 °C -5.0 °C 1018.2 hPa ESE 6.4 km/h 16.1 km/h 91 % 0.0 mm 0 W/m2
07:20 -3.8 °C -5.0 °C 1018.2 hPa ESE 8.0 km/h 17.7 km/h 91 % 0.0 mm 0 W/m2
07:25 -3.8 °C -5.1 °C 1018.2 hPa ESE 3.2 km/h 17.7 km/h 91 % 0.0 mm 0 W/m2
07:30 -3.8 °C -5.0 °C 1017.8 hPa East 4.8 km/h 14.5 km/h 91 % 0.0 mm 0 W/m2
07:35 -3.7 °C -5.0 °C 1017.8 hPa ESE 1.6 km/h 14.5 km/h 91 % 0.0 mm 0 W/m2
07:40 -3.8 °C -5.0 °C 1017.8 hPa ESE 12.9 km/h 14.5 km/h 91 % 0.0 mm 0 W/m2
07:45 -3.7 °C -5.0 °C 1017.8 hPa East 3.2 km/h 16.1 km/h 91 % 0.0 mm 0 W/m2
07:50 -3.8 °C -5.0 °C 1017.8 hPa East 9.7 km/h 16.1 km/h 91 % 0.0 mm 0 W/m2
07:55 -3.8 °C -5.0 °C 1017.8 hPa ESE 4.8 km/h 14.5 km/h 91 % 0.0 mm 0 W/m2
08:00 -3.8 °C -5.1 °C 1017.5 hPa SE 3.2 km/h 14.5 km/h 91 % 0.0 mm 0 W/m2
08:05 -3.9 °C -5.1 °C 1017.5 hPa SE 8.0 km/h 14.5 km/h 91 % 0.0 mm 0 W/m2
08:10 -3.8 °C -5.1 °C 1017.5 hPa ESE 3.2 km/h 16.1 km/h 91 % 0.0 mm 0 W/m2
08:15 -3.9 °C -5.1 °C 1017.5 hPa ESE 6.4 km/h 16.1 km/h 91 % 0.0 mm 0 W/m2
08:20 -3.9 °C -5.2 °C 1017.5 hPa ESE 4.8 km/h 14.5 km/h 91 % 0.0 mm 0 W/m2
08:25 -3.9 °C -5.1 °C 1017.2 hPa ENE 1.6 km/h 16.1 km/h 91 % 0.0 mm 0 W/m2
08:30 -3.9 °C -5.1 °C 1017.2 hPa ESE 3.2 km/h 16.1 km/h 91 % 0.0 mm 0 W/m2
08:35 -3.9 °C -5.2 °C 1017.5 hPa SE 9.7 km/h 16.1 km/h 91 % 0.0 mm 0 W/m2
08:45 -4.0 °C -5.3 °C 1017.2 hPa ESE 8.0 km/h 17.7 km/h 91 % 0.0 mm 5 W/m2
08:50 -4.0 °C -5.3 °C 1017.2 hPa ESE 4.8 km/h 12.9 km/h 91 % 0.0 mm 7 W/m2
08:55 -3.9 °C -5.2 °C 1017.2 hPa ESE 6.4 km/h 14.5 km/h 91 % 0.0 mm 11 W/m2
09:00 -3.9 °C -5.1 °C 1017.2 hPa East 4.8 km/h 17.7 km/h 91 % 0.0 mm 12 W/m2
09:05 -3.9 °C -5.1 °C 1017.2 hPa East 3.2 km/h 17.7 km/h 91 % 0.0 mm 16 W/m2
09:10 -3.8 °C -5.1 °C 1017.2 hPa ESE 11.3 km/h 14.5 km/h 91 % 0.0 mm 19 W/m2
09:15 -3.8 °C -5.2 °C 1017.2 hPa ESE 11.3 km/h 14.5 km/h 90 % 0.0 mm 21 W/m2
09:20 -3.8 °C -5.2 °C 1017.2 hPa East 3.2 km/h 14.5 km/h 90 % 0.0 mm 25 W/m2
09:25 -3.7 °C -5.0 °C 1017.2 hPa ESE 6.4 km/h 14.5 km/h 91 % 0.0 mm 26 W/m2
09:30 -3.7 °C -5.1 °C 1017.2 hPa ESE 6.4 km/h 16.1 km/h 90 % 0.0 mm 28 W/m2
09:35 -3.5 °C -4.9 °C 1017.2 hPa ESE 12.9 km/h 16.1 km/h 90 % 0.0 mm 32 W/m2
09:40 -3.4 °C -4.8 °C 1017.2 hPa East 12.9 km/h 14.5 km/h 90 % 0.0 mm 33 W/m2
09:45 -3.3 °C -4.7 °C 1017.2 hPa ESE 12.9 km/h 16.1 km/h 90 % 0.0 mm 35 W/m2
09:50 -3.2 °C -4.7 °C 1017.2 hPa ESE 3.2 km/h 16.1 km/h 89 % 0.0 mm 37 W/m2
09:55 -3.1 °C -4.6 °C 1017.2 hPa ESE 4.8 km/h 20.9 km/h 89 % 0.0 mm 39 W/m2
10:00 -2.9 °C -4.4 °C 1017.2 hPa ESE 4.8 km/h 20.9 km/h 89 % 0.0 mm 40 W/m2
10:05 -2.8 °C -4.3 °C 1017.2 hPa SE 4.8 km/h 16.1 km/h 89 % 0.0 mm 42 W/m2
10:10 -2.6 °C -4.3 °C 1017.2 hPa East 3.2 km/h 14.5 km/h 88 % 0.0 mm 44 W/m2
10:15 -2.4 °C -4.2 °C 1017.2 hPa ESE 6.4 km/h 14.5 km/h 88 % 0.0 mm 46 W/m2
10:20 -2.3 °C -4.1 °C 1017.2 hPa ESE 6.4 km/h 16.1 km/h 87 % 0.0 mm 46 W/m2
10:25 -2.1 °C -3.9 °C 1017.2 hPa East 8.0 km/h 16.1 km/h 87 % 0.0 mm 165 W/m2
10:30 -1.8 °C -3.9 °C 1016.8 hPa ESE 11.3 km/h 14.5 km/h 86 % 0.0 mm 181 W/m2
10:35 -1.6 °C -3.6 °C 1017.2 hPa Calm   14.5 km/h 86 % 0.0 mm 223 W/m2
10:40 -1.4 °C -3.6 °C 1017.2 hPa ESE 9.7 km/h 14.5 km/h 85 % 0.0 mm 225 W/m2
10:45 -1.1 °C -3.5 °C 1016.8 hPa Calm   12.9 km/h 84 % 0.0 mm 229 W/m2
10:50 -0.8 °C -3.1 °C 1016.8 hPa ESE 4.8 km/h 14.5 km/h 84 % 0.0 mm 234 W/m2
10:55 -0.6 °C -3.1 °C 1016.8 hPa ESE 4.8 km/h 14.5 km/h 83 % 0.0 mm 244 W/m2
11:00 -0.2 °C -3.1 °C 1016.8 hPa SE 4.8 km/h 11.3 km/h 81 % 0.0 mm 255 W/m2
11:05 0.2 °C -2.8 °C 1016.8 hPa ESE 14.5 km/h 16.1 km/h 80 % 0.0 mm 265 W/m2
11:10 0.4 °C -2.8 °C 1016.8 hPa ESE 8.0 km/h 16.1 km/h 79 % 0.0 mm 274 W/m2
11:15 0.7 °C -2.7 °C 1016.8 hPa ESE 4.8 km/h 16.1 km/h 78 % 0.0 mm 285 W/m2
11:20 1.0 °C -2.4 °C 1016.8 hPa SE 8.0 km/h 14.5 km/h 78 % 0.0 mm 287 W/m2
11:25 1.2 °C -2.4 °C 1016.8 hPa East 11.3 km/h 16.1 km/h 77 % 0.0 mm 299 W/m2
11:30 1.5 °C -2.3 °C 1016.5 hPa SE 11.3 km/h 16.1 km/h 76 % 0.0 mm 309 W/m2
11:35 1.7 °C -2.1 °C 1016.5 hPa East 8.0 km/h 16.1 km/h 76 % 0.0 mm 316 W/m2
11:40 1.9 °C -2.2 °C 1016.5 hPa ESE 8.0 km/h 16.1 km/h 74 % 0.0 mm 325 W/m2
11:45 2.2 °C -2.1 °C 1016.5 hPa SSE 3.2 km/h 17.7 km/h 73 % 0.0 mm 330 W/m2
11:50 2.4 °C -2.1 °C 1016.5 hPa SSE 8.0 km/h 20.9 km/h 72 % 0.0 mm 336 W/m2
11:55 2.8 °C -1.8 °C 1016.1 hPa SSE 11.3 km/h 20.9 km/h 72 % 0.0 mm 345 W/m2
12:00 2.9 °C -1.8 °C 1016.1 hPa SE 17.7 km/h 20.9 km/h 71 % 0.0 mm 348 W/m2
12:05 2.9 °C -2.0 °C 1016.1 hPa ESE 12.9 km/h 22.5 km/h 70 % 0.0 mm 352 W/m2
12:10 3.0 °C -2.1 °C 1016.1 hPa ESE 4.8 km/h 27.4 km/h 69 % 0.0 mm 355 W/m2
12:15 3.3 °C -1.9 °C 1016.1 hPa SSE 4.8 km/h 27.4 km/h 69 % 0.0 mm 359 W/m2
12:20 3.6 °C -1.7 °C 1015.8 hPa SE 8.0 km/h 20.9 km/h 68 % 0.0 mm 366 W/m2
12:25 3.8 °C -1.8 °C 1015.8 hPa ESE 4.8 km/h 19.3 km/h 67 % 0.0 mm 367 W/m2
12:30 3.7 °C -1.9 °C 1015.8 hPa East 4.8 km/h 24.1 km/h 67 % 0.0 mm 374 W/m2
12:35 3.9 °C -1.6 °C 1015.8 hPa ESE 19.3 km/h 24.1 km/h 67 % 0.0 mm 369 W/m2
12:40 4.1 °C -1.7 °C 1015.8 hPa SE 8.0 km/h 20.9 km/h 66 % 0.0 mm 374 W/m2
12:45 4.2 °C -1.6 °C 1015.8 hPa ESE 3.2 km/h 22.5 km/h 66 % 0.0 mm 380 W/m2
12:50 4.4 °C -1.4 °C 1015.5 hPa SE 11.3 km/h 24.1 km/h 66 % 0.0 mm 380 W/m2
12:55 4.3 °C -1.7 °C 1015.5 hPa ESE 8.0 km/h 24.1 km/h 65 % 0.0 mm 385 W/m2
13:00 4.4 °C -1.6 °C 1015.5 hPa East 11.3 km/h 22.5 km/h 65 % 0.0 mm 381 W/m2
13:05 4.8 °C -1.3 °C 1015.1 hPa ESE 8.0 km/h 24.1 km/h 65 % 0.0 mm 381 W/m2
13:10 4.7 °C -1.5 °C 1015.1 hPa SE 19.3 km/h 24.1 km/h 64 % 0.0 mm 385 W/m2
13:15 4.9 °C -1.6 °C 1014.8 hPa SE 1.6 km/h 22.5 km/h 63 % 0.0 mm 387 W/m2
13:20 5.1 °C -1.4 °C 1014.8 hPa ESE 17.7 km/h 25.7 km/h 63 % 0.0 mm 385 W/m2
13:25 5.2 °C -1.5 °C 1014.8 hPa ESE 11.3 km/h 25.7 km/h 62 % 0.0 mm 381 W/m2
13:30 5.3 °C -1.6 °C 1014.8 hPa ESE 14.5 km/h 22.5 km/h 61 % 0.0 mm 383 W/m2
13:35 5.4 °C -1.3 °C 1014.4 hPa South 3.2 km/h 22.5 km/h 62 % 0.0 mm 387 W/m2
13:40 5.6 °C -1.6 °C 1014.4 hPa SE 9.7 km/h 24.1 km/h 60 % 0.0 mm 385 W/m2
13:45 5.8 °C -1.4 °C 1014.4 hPa SE 16.1 km/h 24.1 km/h 60 % 0.0 mm 385 W/m2
13:50 6.1 °C -1.1 °C 1014.1 hPa SE 20.9 km/h 20.9 km/h 60 % 0.0 mm 381 W/m2
13:55 6.2 °C -1.4 °C 1014.1 hPa SE 11.3 km/h 24.1 km/h 58 % 0.0 mm 378 W/m2
14:05 6.2 °C -1.2 °C 1013.8 hPa SE 12.9 km/h 24.1 km/h 59 % 0.0 mm 373 W/m2
14:10 6.4 °C -1.0 °C 1013.8 hPa ESE 22.5 km/h 24.1 km/h 59 % 0.0 mm 362 W/m2
14:15 6.4 °C -1.3 °C 1013.8 hPa ESE 14.5 km/h 22.5 km/h 58 % 0.0 mm 360 W/m2
14:20 6.4 °C -1.0 °C 1013.8 hPa SSE 4.8 km/h 27.4 km/h 59 % 0.0 mm 355 W/m2
14:25 6.6 °C -0.8 °C 1013.8 hPa SE 4.8 km/h 27.4 km/h 59 % 0.0 mm 350 W/m2
14:30 6.8 °C -0.7 °C 1013.8 hPa ENE 11.3 km/h 25.7 km/h 59 % 0.0 mm 345 W/m2
14:35 6.7 °C -0.7 °C 1013.4 hPa ESE 16.1 km/h 25.7 km/h 59 % 0.0 mm 343 W/m2
14:40 7.0 °C -0.5 °C 1013.4 hPa ESE 11.3 km/h 20.9 km/h 59 % 0.0 mm 332 W/m2
14:45 6.9 °C -0.6 °C 1013.4 hPa ESE 24.1 km/h 24.1 km/h 59 % 0.0 mm 327 W/m2
14:50 6.8 °C -0.6 °C 1013.4 hPa ESE 11.3 km/h 24.1 km/h 59 % 0.0 mm 320 W/m2
14:55 6.8 °C -0.4 °C 1013.1 hPa SE 6.4 km/h 24.1 km/h 60 % 0.0 mm 313 W/m2
15:00 7.1 °C 0.0 °C 1013.1 hPa ESE 12.9 km/h 20.9 km/h 61 % 0.0 mm 308 W/m2
15:05 7.1 °C -0.1 °C 1013.1 hPa SE 14.5 km/h 24.1 km/h 60 % 0.0 mm 301 W/m2
15:10 7.1 °C 0.0 °C 1013.1 hPa SE 6.4 km/h 24.1 km/h 61 % 0.0 mm 290 W/m2
15:15 6.9 °C -0.1 °C 1012.8 hPa ESE 9.7 km/h 29.0 km/h 61 % 0.0 mm 279 W/m2
15:20 6.9 °C 0.1 °C 1012.8 hPa ESE 17.7 km/h 29.0 km/h 62 % 0.0 mm 274 W/m2
15:25 7.1 °C 0.3 °C 1012.8 hPa SE 9.7 km/h 25.7 km/h 62 % 0.0 mm 269 W/m2
15:30 7.1 °C 0.3 °C 1012.8 hPa East 12.9 km/h 20.9 km/h 62 % 0.0 mm 258 W/m2
15:35 7.1 °C 0.5 °C 1012.8 hPa SE 8.0 km/h 22.5 km/h 63 % 0.0 mm 250 W/m2
15:40 7.3 °C 0.7 °C 1012.8 hPa ESE 12.9 km/h 22.5 km/h 63 % 0.0 mm 239 W/m2
15:45 7.3 °C 0.7 °C 1012.4 hPa ESE 3.2 km/h 20.9 km/h 63 % 0.0 mm 230 W/m2
15:50 7.4 °C 0.8 °C 1012.4 hPa ESE 6.4 km/h 20.9 km/h 63 % 0.0 mm 221 W/m2
15:55 7.3 °C 0.9 °C 1012.4 hPa East 14.5 km/h 20.9 km/h 64 % 0.0 mm 213 W/m2
16:00 7.4 °C 1.0 °C 1012.4 hPa ESE 1.6 km/h 20.9 km/h 64 % 0.0 mm 202 W/m2
16:05 7.4 °C 1.1 °C 1012.4 hPa SSE 4.8 km/h 20.9 km/h 64 % 0.0 mm 193 W/m2
16:10 7.5 °C 1.3 °C 1012.1 hPa ESE 11.3 km/h 17.7 km/h 65 % 0.0 mm 183 W/m2
16:15 7.6 °C 1.2 °C 1012.1 hPa SE 11.3 km/h 17.7 km/h 64 % 0.0 mm 172 W/m2
16:20 7.6 °C 1.4 °C 1012.1 hPa SE 4.8 km/h 17.7 km/h 65 % 0.0 mm 160 W/m2
16:25 7.6 °C 1.4 °C 1012.1 hPa SE 6.4 km/h 19.3 km/h 65 % 0.0 mm 149 W/m2
16:30 7.5 °C 1.6 °C 1012.1 hPa ESE 4.8 km/h 24.1 km/h 66 % 0.0 mm 135 W/m2
16:35 7.4 °C 1.5 °C 1012.1 hPa ESE 8.0 km/h 24.1 km/h 66 % 0.0 mm 44 W/m2
16:40 7.4 °C 1.7 °C 1012.1 hPa SE 12.9 km/h 17.7 km/h 67 % 0.0 mm 42 W/m2
16:45 7.3 °C 1.6 °C 1011.7 hPa Calm   19.3 km/h 67 % 0.0 mm 42 W/m2
16:50 7.2 °C 1.7 °C 1011.7 hPa ESE 9.7 km/h 19.3 km/h 68 % 0.0 mm 35 W/m2
16:55 7.2 °C 1.7 °C 1011.7 hPa ESE 4.8 km/h 19.3 km/h 68 % 0.0 mm 33 W/m2
17:00 7.1 °C 1.6 °C 1011.7 hPa ESE 8.0 km/h 17.7 km/h 68 % 0.0 mm 32 W/m2
17:05 7.0 °C 1.7 °C 1011.7 hPa East 16.1 km/h 16.1 km/h 69 % 0.0 mm 30 W/m2
17:10 6.9 °C 1.6 °C 1011.7 hPa ESE 4.8 km/h 16.1 km/h 69 % 0.0 mm 33 W/m2
17:15 6.8 °C 1.7 °C 1011.4 hPa SE 11.3 km/h 16.1 km/h 70 % 0.0 mm 28 W/m2
17:20 6.7 °C 1.6 °C 1011.4 hPa ESE 6.4 km/h 14.5 km/h 70 % 0.0 mm 21 W/m2
17:25 6.6 °C 1.7 °C 1011.4 hPa SE 6.4 km/h 12.9 km/h 71 % 0.0 mm 19 W/m2
17:30 6.3 °C 1.5 °C 1011.4 hPa SE 3.2 km/h 12.9 km/h 71 % 0.0 mm 14 W/m2
17:35 6.1 °C 1.4 °C 1011.4 hPa ESE 3.2 km/h 11.3 km/h 72 % 0.0 mm 16 W/m2
17:40 5.9 °C 1.5 °C 1011.4 hPa East 3.2 km/h 11.3 km/h 73 % 0.0 mm 9 W/m2
17:45 5.8 °C 1.5 °C 1011.4 hPa ESE 9.7 km/h 11.3 km/h 74 % 0.0 mm 7 W/m2
17:50 5.7 °C 1.4 °C 1011.1 hPa ESE 3.2 km/h 11.3 km/h 74 % 0.0 mm 5 W/m2
17:55 5.6 °C 1.5 °C 1011.1 hPa ESE 3.2 km/h 11.3 km/h 75 % 0.0 mm 0 W/m2
18:00 5.4 °C 1.3 °C 1011.1 hPa East 9.7 km/h 12.9 km/h 75 % 0.0 mm 0 W/m2
18:05 5.3 °C 1.4 °C 1011.1 hPa ESE 8.0 km/h 12.9 km/h 76 % 0.0 mm 0 W/m2
18:10 5.3 °C 1.4 °C 1011.1 hPa East 8.0 km/h 16.1 km/h 76 % 0.0 mm 0 W/m2
18:15 5.2 °C 1.3 °C 1011.1 hPa SE 3.2 km/h 16.1 km/h 76 % 0.0 mm 0 W/m2
18:20 5.1 °C 1.2 °C 1011.1 hPa East 4.8 km/h 12.9 km/h 76 % 0.0 mm 0 W/m2
18:25 4.7 °C 1.0 °C 1011.1 hPa East 8.0 km/h 11.3 km/h 77 % 0.0 mm 0 W/m2
18:30 4.4 °C 0.9 °C 1011.1 hPa East 9.7 km/h 12.9 km/h 78 % 0.0 mm 0 W/m2
18:35 4.2 °C 0.7 °C 1010.7 hPa East 3.2 km/h 12.9 km/h 78 % 0.0 mm 0 W/m2
18:40 4.1 °C 0.6 °C 1010.7 hPa ESE 11.3 km/h 12.9 km/h 78 % 0.0 mm 0 W/m2
18:45 4.0 °C 0.5 °C 1010.7 hPa ESE 4.8 km/h 14.5 km/h 78 % 0.0 mm 0 W/m2
18:50 3.8 °C 0.5 °C 1010.7 hPa ESE 3.2 km/h 14.5 km/h 79 % 0.0 mm 0 W/m2
18:55 3.7 °C 0.4 °C 1010.7 hPa East 4.8 km/h 14.5 km/h 79 % 0.0 mm 0 W/m2
19:00 3.7 °C 0.4 °C 1010.4 hPa ENE 8.0 km/h 14.5 km/h 79 % 0.0 mm 0 W/m2
19:05 3.6 °C 0.3 °C 1010.7 hPa SE 1.6 km/h 12.9 km/h 79 % 0.0 mm 0 W/m2
19:10 3.4 °C 0.1 °C 1010.7 hPa ESE 3.2 km/h 17.7 km/h 79 % 0.0 mm 0 W/m2
19:15 3.3 °C 0.0 °C 1010.7 hPa East 8.0 km/h 17.7 km/h 79 % 0.0 mm 0 W/m2
19:20 3.1 °C 0.0 °C 1010.7 hPa ESE 6.4 km/h 14.5 km/h 80 % 0.0 mm 0 W/m2
19:30 3.1 °C 0.1 °C 1010.7 hPa ESE 12.9 km/h 17.7 km/h 81 % 0.0 mm 0 W/m2
19:35 3.1 °C 0.2 °C 1010.4 hPa East 12.9 km/h 16.1 km/h 81 % 0.0 mm 0 W/m2
19:40 3.2 °C 0.2 °C 1010.4 hPa East 11.3 km/h 20.9 km/h 81 % 0.0 mm 0 W/m2
19:45 3.2 °C 0.3 °C 1010.4 hPa ESE 14.5 km/h 22.5 km/h 81 % 0.0 mm 0 W/m2
19:50 3.2 °C 0.3 °C 1010.4 hPa SE 12.9 km/h 22.5 km/h 81 % 0.0 mm 0 W/m2
19:55 3.2 °C 0.3 °C 1010.4 hPa ESE 4.8 km/h 20.9 km/h 81 % 0.0 mm 0 W/m2
20:00 3.2 °C 0.4 °C 1010.4 hPa ESE 4.8 km/h 19.3 km/h 82 % 0.0 mm 0 W/m2
20:05 3.2 °C 0.4 °C 1010.4 hPa East 11.3 km/h 19.3 km/h 82 % 0.0 mm 0 W/m2
20:10 3.1 °C 0.3 °C 1010.4 hPa SE 4.8 km/h 17.7 km/h 82 % 0.0 mm 0 W/m2
20:15 2.9 °C 0.1 °C 1010.4 hPa ESE 11.3 km/h 16.1 km/h 82 % 0.0 mm 0 W/m2
20:20 2.8 °C 0.1 °C 1010.0 hPa SE 12.9 km/h 16.1 km/h 82 % 0.0 mm 0 W/m2
20:25 2.8 °C 0.2 °C 1010.0 hPa ESE 11.3 km/h 16.1 km/h 83 % 0.0 mm 0 W/m2
20:30 2.7 °C 0.1 °C 1010.0 hPa ESE 14.5 km/h 14.5 km/h 83 % 0.0 mm 0 W/m2
20:35 2.6 °C 0.0 °C 1010.0 hPa SE 4.8 km/h 14.5 km/h 83 % 0.0 mm 0 W/m2
20:40 2.6 °C 0.0 °C 1010.0 hPa ESE 3.2 km/h 14.5 km/h 83 % 0.0 mm 0 W/m2
20:45 2.5 °C 0.1 °C 1010.0 hPa SE 6.4 km/h 14.5 km/h 84 % 0.0 mm 0 W/m2
20:50 2.4 °C -0.2 °C 1010.0 hPa SE 6.4 km/h 14.5 km/h 83 % 0.0 mm 0 W/m2
20:55 2.4 °C 0.0 °C 1009.7 hPa SE 1.6 km/h 12.9 km/h 84 % 0.0 mm 0 W/m2
21:00 2.3 °C -0.1 °C 1009.7 hPa SE 4.8 km/h 11.3 km/h 84 % 0.0 mm 0 W/m2
21:05 2.1 °C -0.2 °C 1009.7 hPa SE 3.2 km/h 11.3 km/h 85 % 0.0 mm 0 W/m2
21:10 2.1 °C -0.2 °C 1009.7 hPa SE 3.2 km/h 9.7 km/h 85 % 0.0 mm 0 W/m2
21:15 2.1 °C -0.2 °C 1009.7 hPa ESE 4.8 km/h 11.3 km/h 85 % 0.0 mm 0 W/m2
21:20 2.1 °C -0.2 °C 1009.7 hPa SE 8.0 km/h 14.5 km/h 85 % 0.0 mm 0 W/m2
21:25 2.2 °C 0.0 °C 1009.7 hPa Calm   14.5 km/h 85 % 0.0 mm 0 W/m2
21:30 2.3 °C -0.1 °C 1009.7 hPa ESE 6.4 km/h 12.9 km/h 84 % 0.0 mm 0 W/m2
21:35 2.2 °C -0.2 °C 1009.7 hPa ESE 3.2 km/h 11.3 km/h 84 % 0.0 mm 0 W/m2
21:40 2.3 °C 0.0 °C 1009.7 hPa ESE 3.2 km/h 14.5 km/h 85 % 0.0 mm 0 W/m2
21:45 2.3 °C -0.1 °C 1009.7 hPa SE 8.0 km/h 14.5 km/h 84 % 0.0 mm 0 W/m2
21:50 2.2 °C -0.2 °C 1009.7 hPa SE 6.4 km/h 12.9 km/h 84 % 0.0 mm 0 W/m2
21:55 2.2 °C -0.2 °C 1009.4 hPa ESE 8.0 km/h 12.9 km/h 84 % 0.0 mm 0 W/m2
22:00 2.2 °C -0.3 °C 1009.7 hPa ESE 9.7 km/h 12.9 km/h 84 % 0.0 mm 0 W/m2
22:05 2.1 °C -0.2 °C 1009.4 hPa ESE 6.4 km/h 11.3 km/h 85 % 0.0 mm 0 W/m2
22:10 2.1 °C -0.1 °C 1009.4 hPa ESE 3.2 km/h 12.9 km/h 85 % 0.0 mm 0 W/m2
22:15 2.2 °C -0.1 °C 1009.4 hPa SE 4.8 km/h 14.5 km/h 85 % 0.0 mm 0 W/m2
22:20 2.2 °C 0.0 °C 1009.4 hPa Calm   14.5 km/h 85 % 0.0 mm 0 W/m2
22:25 2.2 °C -0.2 °C 1009.4 hPa SSE 3.2 km/h 14.5 km/h 84 % 0.0 mm 0 W/m2
22:30 2.2 °C -0.3 °C 1009.4 hPa SE 4.8 km/h 12.9 km/h 84 % 0.0 mm 0 W/m2
22:35 2.0 °C -0.4 °C 1009.4 hPa SE 9.7 km/h 12.9 km/h 84 % 0.0 mm 0 W/m2
22:40 1.9 °C -0.4 °C 1009.0 hPa SE 3.2 km/h 12.9 km/h 85 % 0.0 mm 0 W/m2
22:50 1.9 °C -0.3 °C 1009.0 hPa ESE 3.2 km/h 12.9 km/h 85 % 0.0 mm 0 W/m2
22:55 1.9 °C -0.4 °C 1009.0 hPa SE 6.4 km/h 12.9 km/h 85 % 0.0 mm 0 W/m2
23:00 1.9 °C -0.4 °C 1009.0 hPa ESE 4.8 km/h 12.9 km/h 85 % 0.0 mm 0 W/m2
23:10 1.8 °C -0.3 °C 1009.0 hPa ESE 3.2 km/h 11.3 km/h 86 % 0.0 mm 0 W/m2
23:15 1.8 °C -0.4 °C 1009.0 hPa SE 6.4 km/h 11.3 km/h 85 % 0.0 mm 0 W/m2
23:20 1.8 °C -0.5 °C 1008.7 hPa SE 3.2 km/h 11.3 km/h 85 % 0.0 mm 0 W/m2
23:25 1.7 °C -0.5 °C 1008.7 hPa SE 9.7 km/h 12.9 km/h 85 % 0.0 mm 0 W/m2
23:30 1.9 °C -0.2 °C 1008.7 hPa SE 4.8 km/h 14.5 km/h 86 % 0.0 mm 0 W/m2
23:35 2.1 °C -0.2 °C 1008.7 hPa ESE 12.9 km/h 14.5 km/h 85 % 0.0 mm 0 W/m2
23:40 2.0 °C -0.3 °C 1008.7 hPa SSE 3.2 km/h 14.5 km/h 85 % 0.0 mm 0 W/m2
23:45 2.0 °C -0.3 °C 1008.7 hPa SE 11.3 km/h 14.5 km/h 85 % 0.0 mm 0 W/m2
23:50 2.1 °C -0.1 °C 1008.7 hPa ESE 4.8 km/h 11.3 km/h 85 % 0.0 mm 0 W/m2
Avec l'autorisation de Weather Underground - 1.75 mb